| time (UTC) | temp F | wind direction | speed MPH | gust MPH | rain 1hr in | rain 24hr in | rain mn in | humidity % | barometer mb |
| 20260504050510 | 53 | 89 | 1.0 | 3.0 | 0.00 | 0.00 | 0.00 | 76 | 1016.0 |
| 20260504045554 | 53 | 89 | 0.0 | 0.0 | 0.00 | 0.00 | 0.00 | 75 | 1015.7 |
| 20260504045053 | 53 | 89 | 0.0 | 0.0 | 0.00 | 0.00 | 0.00 | 75 | 1015.6 |
| 20260504044559 | 53 | 89 | 0.0 | 1.0 | 0.00 | 0.00 | 0.00 | 74 | 1015.7 |
| 20260504044052 | 53 | 89 | 0.0 | 1.0 | 0.00 | 0.00 | 0.00 | 74 | 1015.7 |
| 20260504043552 | 53 | 89 | 0.0 | 2.0 | 0.00 | 0.00 | 0.00 | 74 | 1015.8 |
| 20260504043053 | 53 | 89 | 0.0 | 2.0 | 0.00 | 0.00 | 0.00 | 73 | 1015.6 |
| 20260504042550 | 54 | 350 | 0.0 | 2.0 | 0.00 | 0.00 | 0.00 | 73 | 1015.4 |
| 20260504042053 | 54 | 350 | 0.0 | 1.0 | 0.00 | 0.00 | 0.00 | 73 | 1015.5 |
| 20260504041549 | 54 | 350 | 0.0 | 0.0 | 0.00 | 0.00 | 0.00 | 73 | 1015.3 |
| 20260504041048 | 54 | 350 | 0.0 | 0.0 | 0.00 | 0.00 | 0.00 | 73 | 1015.3 |
| 20260504040548 | 54 | 350 | 0.0 | 1.0 | 0.00 | 0.00 | 0.00 | 73 | 1015.2 |
| 20260504040132 | 55 | 350 | 0.0 | 1.0 | 0.00 | 0.00 | 0.00 | 73 | 1015.2 |
| 20260504035532 | 55 | 350 | 0.0 | 1.0 | 0.00 | 0.00 | 0.00 | 73 | 1015.1 |
| 20260504035031 | 55 | 350 | 0.0 | 1.0 | 0.00 | 0.00 | 0.00 | 73 | 1015.1 |
| 20260504034551 | 55 | 349 | 0.0 | 1.0 | 0.00 | 0.00 | 0.00 | 72 | 1015.0 |
| 20260504034031 | 55 | 349 | 0.0 | 1.0 | 0.00 | 0.00 | 0.00 | 73 | 1014.9 |
| 20260504033529 | 56 | 349 | 0.0 | 2.0 | 0.00 | 0.00 | 0.00 | 73 | 1014.9 |
| 20260504033028 | 56 | 349 | 0.0 | 2.0 | 0.00 | 0.00 | 0.00 | 73 | 1014.7 |
| 20260504032528 | 56 | 349 | 0.0 | 3.0 | 0.00 | 0.00 | 0.00 | 72 | 1014.8 |
| 20260504032029 | 56 | 349 | 0.0 | 5.0 | 0.00 | 0.00 | 0.00 | 72 | 1014.8 |
| 20260504031528 | 56 | 349 | 0.0 | 6.0 | 0.00 | 0.00 | 0.00 | 72 | 1014.7 |
| 20260504031027 | 56 | 349 | 1.0 | 6.0 | 0.00 | 0.00 | 0.00 | 72 | 1014.8 |
| 20260504030527 | 57 | 335 | 2.0 | 7.0 | 0.00 | 0.00 | 0.00 | 72 | 1014.8 |
| 20260504030037 | 57 | 335 | 2.0 | 8.0 | 0.00 | 0.00 | 0.00 | 71 | 1014.7 |
| 20260504025521 | 57 | 288 | 2.0 | 9.0 | 0.00 | 0.00 | 0.00 | 71 | 1014.6 |
| 20260504025023 | 57 | 341 | 3.0 | 9.0 | 0.00 | 0.00 | 0.00 | 70 | 1014.5 |
| 20260504024521 | 57 | 283 | 2.0 | 10.0 | 0.00 | 0.00 | 0.00 | 70 | 1014.5 |
| 20260504024020 | 57 | 304 | 1.0 | 12.0 | 0.00 | 0.00 | 0.00 | 70 | 1014.6 |
| 20260504023520 | 58 | 321 | 5.0 | 12.0 | 0.00 | 0.00 | 0.00 | 69 | 1014.6 |
| 20260504023022 | 58 | 306 | 2.0 | 11.0 | 0.00 | 0.00 | 0.00 | 69 | 1014.6 |
| 20260504022520 | 58 | 310 | 5.0 | 11.0 | 0.00 | 0.00 | 0.00 | 69 | 1014.4 |
| 20260504022018 | 58 | 303 | 4.0 | 10.0 | 0.00 | 0.00 | 0.00 | 69 | 1014.4 |
| 20260504021519 | 58 | 328 | 2.0 | 14.0 | 0.00 | 0.00 | 0.00 | 68 | 1014.5 |
| 20260504021018 | 58 | 293 | 3.0 | 14.0 | 0.00 | 0.00 | 0.00 | 68 | 1014.4 |
| 20260504020518 | 59 | 268 | 1.0 | 12.0 | 0.00 | 0.00 | 0.00 | 68 | 1014.4 |
| 20260504020014 | 59 | 310 | 3.0 | 12.0 | 0.00 | 0.00 | 0.00 | 68 | 1014.3 |
| 20260504015513 | 59 | 305 | 5.0 | 12.0 | 0.00 | 0.00 | 0.00 | 67 | 1014.3 |
| 20260504015014 | 59 | 310 | 5.0 | 12.0 | 0.00 | 0.00 | 0.00 | 67 | 1014.3 |
| 20260504014530 | 59 | 329 | 6.0 | 16.0 | 0.00 | 0.00 | 0.00 | 66 | 1014.2 |
| 20260504014013 | 60 | 316 | 6.0 | 16.0 | 0.00 | 0.00 | 0.00 | 66 | 1014.1 |
| 20260504013512 | 60 | 310 | 6.0 | 16.0 | 0.00 | 0.00 | 0.00 | 66 | 1014.1 |
| 20260504013011 | 60 | 316 | 7.0 | 20.0 | 0.00 | 0.00 | 0.00 | 65 | 1014.1 |
| 20260504012512 | 60 | 311 | 8.0 | 20.0 | 0.00 | 0.00 | 0.00 | 66 | 1014.1 |
| 20260504012010 | 60 | 329 | 3.0 | 12.0 | 0.00 | 0.00 | 0.00 | 66 | 1014.2 |
| 20260504011509 | 60 | 293 | 6.0 | 15.0 | 0.00 | 0.00 | 0.00 | 66 | 1014.0 |
| 20260504011010 | 60 | 345 | 6.0 | 15.0 | 0.00 | 0.00 | 0.00 | 65 | 1014.1 |
| 20260504010509 | 61 | 270 | 4.0 | 15.0 | 0.00 | 0.00 | 0.00 | 65 | 1014.1 |
| 20260504010115 | 61 | 320 | 5.0 | 15.0 | 0.00 | 0.00 | 0.00 | 64 | 1014.2 |
| 20260504005503 | 61 | 309 | 6.0 | 16.0 | 0.00 | 0.00 | 0.00 | 64 | 1014.1 |
| 20260504005003 | 61 | 331 | 7.0 | 15.0 | 0.00 | 0.00 | 0.00 | 64 | 1014.1 |
| 20260504004509 | 61 | 279 | 6.0 | 17.0 | 0.00 | 0.00 | 0.00 | 64 | 1014.0 |
| 20260504004002 | 62 | 321 | 5.0 | 16.0 | 0.00 | 0.00 | 0.00 | 64 | 1013.9 |
| 20260504003500 | 62 | 350 | 6.0 | 16.0 | 0.00 | 0.00 | 0.00 | 64 | 1013.8 |
| 20260504003100 | 62 | 289 | 6.0 | 14.0 | 0.00 | 0.00 | 0.00 | 64 | 1013.8 |
| 20260504002600 | 62 | 308 | 4.0 | 14.0 | 0.00 | 0.00 | 0.00 | 64 | 1013.8 |
| 20260504002059 | 62 | 326 | 6.0 | 15.0 | 0.00 | 0.00 | 0.00 | 62 | 1013.9 |
| 20260504001612 | 62 | 279 | 5.0 | 16.0 | 0.00 | 0.00 | 0.00 | 60 | 1013.9 |
| 20260504001059 | 62 | 315 | 8.0 | 16.0 | 0.00 | 0.00 | 0.00 | 60 | 1013.7 |
| 20260504000559 | 63 | 341 | 6.0 | 15.0 | 0.00 | 0.00 | 0.00 | 60 | 1013.6 |
| 20260504000053 | 63 | 314 | 6.0 | 13.0 | 0.00 | 0.00 | 0.00 | 60 | 1013.6 |
| 20260503235554 | 63 | 348 | 4.0 | 13.0 | 0.00 | 0.00 | 0.00 | 60 | 1013.6 |
| 20260503235052 | 63 | 331 | 5.0 | 13.0 | 0.00 | 0.00 | 0.00 | 61 | 1013.6 |
| 20260503234552 | 63 | 320 | 4.0 | 17.0 | 0.00 | 0.00 | 0.00 | 59 | 1013.5 |
| 20260503234052 | 63 | 300 | 7.0 | 19.0 | 0.00 | 0.00 | 0.00 | 59 | 1013.5 |
| 20260503233552 | 64 | 303 | 8.0 | 19.0 | 0.00 | 0.00 | 0.00 | 57 | 1013.4 |
| 20260503233052 | 64 | 274 | 9.0 | 18.0 | 0.00 | 0.00 | 0.00 | 57 | 1013.5 |
| 20260503232551 | 64 | 318 | 9.0 | 19.0 | 0.00 | 0.00 | 0.00 | 56 | 1013.4 |
| 20260503232051 | 64 | 316 | 8.0 | 19.0 | 0.00 | 0.00 | 0.00 | 57 | 1013.5 |
| 20260503231550 | 65 | 304 | 10.0 | 17.0 | 0.00 | 0.00 | 0.00 | 57 | 1013.5 |
| 20260503231050 | 65 | 317 | 7.0 | 15.0 | 0.00 | 0.00 | 0.00 | 58 | 1013.4 |
| 20260503230550 | 65 | 279 | 9.0 | 17.0 | 0.00 | 0.00 | 0.00 | 57 | 1013.5 |
| 20260503230030 | 66 | 305 | 8.0 | 17.0 | 0.00 | 0.00 | 0.00 | 56 | 1013.6 |
| 20260503225530 | 66 | 271 | 5.0 | 16.0 | 0.00 | 0.00 | 0.00 | 56 | 1013.6 |
| 20260503225031 | 66 | 285 | 6.0 | 17.0 | 0.00 | 0.00 | 0.00 | 56 | 1013.7 |
| 20260503224632 | 66 | 316 | 8.0 | 17.0 | 0.00 | 0.00 | 0.00 | 55 | 1013.6 |
| 20260503224030 | 66 | 316 | 6.0 | 17.0 | 0.00 | 0.00 | 0.00 | 55 | 1013.5 |
| 20260503223530 | 66 | 321 | 7.0 | 17.0 | 0.00 | 0.00 | 0.00 | 54 | 1013.6 |
| 20260503223029 | 66 | 318 | 5.0 | 15.0 | 0.00 | 0.00 | 0.00 | 55 | 1013.6 |
| 20260503222529 | 66 | 303 | 8.0 | 16.0 | 0.00 | 0.00 | 0.00 | 55 | 1013.7 |
| 20260503222027 | 67 | 305 | 6.0 | 16.0 | 0.00 | 0.00 | 0.00 | 54 | 1013.6 |
| 20260503221526 | 67 | 273 | 6.0 | 15.0 | 0.00 | 0.00 | 0.00 | 56 | 1013.8 |
| 20260503221026 | 66 | 15 | 2.0 | 17.0 | 0.00 | 0.00 | 0.00 | 55 | 1013.8 |
| 20260503220526 | 66 | 299 | 7.0 | 17.0 | 0.00 | 0.00 | 0.00 | 56 | 1013.9 |
| 20260503220018 | 66 | 290 | 6.0 | 13.0 | 0.00 | 0.00 | 0.00 | 55 | 1013.9 |
| 20260503215518 | 66 | 328 | 3.0 | 13.0 | 0.00 | 0.00 | 0.00 | 57 | 1014.0 |
| 20260503215016 | 66 | 320 | 6.0 | 15.0 | 0.00 | 0.00 | 0.00 | 57 | 1013.9 |
| 20260503214618 | 66 | 289 | 7.0 | 17.0 | 0.00 | 0.00 | 0.00 | 58 | 1014.0 |
| 20260503214021 | 65 | 307 | 8.0 | 17.0 | 0.00 | 0.00 | 0.00 | 57 | 1014.0 |
| 20260503213515 | 66 | 304 | 7.0 | 14.0 | 0.00 | 0.00 | 0.00 | 58 | 1014.0 |
| 20260503213015 | 66 | 298 | 7.0 | 14.0 | 0.00 | 0.00 | 0.00 | 59 | 1014.0 |
| 20260503212515 | 66 | 299 | 6.0 | 13.0 | 0.00 | 0.00 | 0.00 | 59 | 1014.0 |
| 20260503212013 | 66 | 329 | 6.0 | 17.0 | 0.00 | 0.00 | 0.00 | 60 | 1013.8 |
| 20260503211514 | 66 | 338 | 3.0 | 16.0 | 0.00 | 0.00 | 0.00 | 59 | 1013.9 |
| 20260503211013 | 66 | 266 | 6.0 | 16.0 | 0.00 | 0.00 | 0.00 | 58 | 1014.0 |
| 20260503210519 | 66 | 329 | 9.0 | 14.0 | 0.00 | 0.00 | 0.00 | 58 | 1014.0 |
| 20260503210006 | 66 | 321 | 10.0 | 15.0 | 0.00 | 0.00 | 0.00 | 58 | 1013.9 |
| 20260503205506 | 66 | 318 | 8.0 | 15.0 | 0.00 | 0.00 | 0.00 | 57 | 1014.0 |
| 20260503205006 | 66 | 269 | 7.0 | 15.0 | 0.00 | 0.00 | 0.00 | 58 | 1014.1 |
| 20260503204505 | 66 | 283 | 8.0 | 14.0 | 0.00 | 0.00 | 0.00 | 58 | 1014.2 |
| 20260503204005 | 66 | 304 | 7.0 | 15.0 | 0.00 | 0.00 | 0.00 | 60 | 1014.2 |
| 20260503203508 | 66 | 323 | 7.0 | 15.0 | 0.00 | 0.00 | 0.00 | 60 | 1014.3 |
| 20260503203004 | 66 | 305 | 8.0 | 14.0 | 0.00 | 0.00 | 0.00 | 59 | 1014.3 |
| 20260503202505 | 66 | 354 | 6.0 | 16.0 | 0.00 | 0.00 | 0.00 | 60 | 1014.2 |
| 20260503202004 | 65 | 268 | 5.0 | 19.0 | 0.00 | 0.00 | 0.00 | 62 | 1014.2 |
| 20260503201504 | 65 | 314 | 10.0 | 19.0 | 0.00 | 0.00 | 0.00 | 60 | 1014.3 |
| 20260503201007 | 66 | 341 | 9.0 | 17.0 | 0.00 | 0.00 | 0.00 | 60 | 1014.2 |
| 20260503200504 | 65 | 331 | 4.0 | 13.0 | 0.00 | 0.00 | 0.00 | 61 | 1014.3 |
| 20260503200100 | 65 | 292 | 7.0 | 14.0 | 0.00 | 0.00 | 0.00 | 61 | 1014.2 |
| 20260503195555 | 65 | 307 | 6.0 | 17.0 | 0.00 | 0.00 | 0.00 | 61 | 1014.3 |
| 20260503195057 | 65 | 316 | 5.0 | 17.0 | 0.00 | 0.00 | 0.00 | 61 | 1014.3 |
| 20260503194555 | 65 | 312 | 6.0 | 18.0 | 0.00 | 0.00 | 0.00 | 60 | 1014.4 |
| 20260503194055 | 65 | 300 | 7.0 | 16.0 | 0.00 | 0.00 | 0.00 | 59 | 1014.3 |
| 20260503193555 | 65 | 323 | 7.0 | 12.0 | 0.00 | 0.00 | 0.00 | 60 | 1014.4 |
| 20260503193059 | 65 | 325 | 6.0 | 12.0 | 0.00 | 0.00 | 0.00 | 60 | 1014.4 |
| 20260503192553 | 65 | 304 | 6.0 | 12.0 | 0.00 | 0.00 | 0.00 | 61 | 1014.4 |
| 20260503192052 | 65 | 312 | 7.0 | 12.0 | 0.00 | 0.00 | 0.00 | 61 | 1014.4 |
| 20260503191601 | 64 | 320 | 4.0 | 10.0 | 0.00 | 0.00 | 0.00 | 61 | 1014.4 |
| 20260503191050 | 64 | 310 | 5.0 | 10.0 | 0.00 | 0.00 | 0.00 | 60 | 1014.5 |
| 20260503190549 | 63 | 267 | 3.0 | 9.0 | 0.00 | 0.00 | 0.00 | 60 | 1014.4 |
| 20260503190038 | 63 | 300 | 5.0 | 11.0 | 0.00 | 0.00 | 0.00 | 61 | 1014.4 |
| 20260503185535 | 63 | 275 | 3.0 | 11.0 | 0.00 | 0.00 | 0.00 | 62 | 1014.5 |
| 20260503185035 | 62 | 310 | 2.0 | 11.0 | 0.00 | 0.00 | 0.00 | 62 | 1014.5 |
| 20260503184538 | 62 | 304 | 4.0 | 11.0 | 0.00 | 0.00 | 0.00 | 63 | 1014.5 |
| 20260503184032 | 61 | 308 | 4.0 | 10.0 | 0.00 | 0.00 | 0.00 | 63 | 1014.5 |
| 20260503183532 | 61 | 343 | 2.0 | 10.0 | 0.00 | 0.00 | 0.00 | 63 | 1014.6 |
| 20260503183029 | 61 | 289 | 4.0 | 10.0 | 0.00 | 0.00 | 0.00 | 64 | 1014.6 |
| 20260503182527 | 60 | 289 | 2.0 | 9.0 | 0.00 | 0.00 | 0.00 | 64 | 1014.7 |
| 20260503182026 | 60 | 302 | 4.0 | 11.0 | 0.00 | 0.00 | 0.00 | 65 | 1014.7 |
| 20260503181525 | 60 | 358 | 0.0 | 11.0 | 0.00 | 0.00 | 0.00 | 65 | 1014.7 |
| 20260503181026 | 60 | 319 | 0.0 | 10.0 | 0.00 | 0.00 | 0.00 | 66 | 1014.8 |
| 20260503180523 | 60 | 274 | 3.0 | 8.0 | 0.00 | 0.00 | 0.00 | 67 | 1014.7 |
| 20260503180022 | 59 | 310 | 0.0 | 11.0 | 0.00 | 0.00 | 0.00 | 67 | 1014.7 |
| 20260503175514 | 59 | 296 | 5.0 | 11.0 | 0.00 | 0.00 | 0.00 | 68 | 1014.7 |
| 20260503175013 | 59 | 313 | 1.0 | 9.0 | 0.00 | 0.00 | 0.00 | 68 | 1014.7 |
| 20260503174512 | 59 | 319 | 2.0 | 10.0 | 0.00 | 0.00 | 0.00 | 69 | 1014.7 |
| 20260503174012 | 58 | 302 | 5.0 | 10.0 | 0.00 | 0.00 | 0.00 | 70 | 1014.8 |
| 20260503173509 | 58 | 294 | 4.0 | 9.0 | 0.00 | 0.00 | 0.00 | 71 | 1014.8 |
| 20260503173009 | 58 | 318 | 1.0 | 7.0 | 0.00 | 0.00 | 0.00 | 72 | 1014.8 |
| 20260503172508 | 58 | 321 | 1.0 | 13.0 | 0.00 | 0.00 | 0.00 | 73 | 1014.8 |
| 20260503172006 | 58 | 310 | 1.0 | 13.0 | 0.00 | 0.00 | 0.00 | 73 | 1014.7 |
| 20260503171506 | 58 | 314 | 2.0 | 8.0 | 0.00 | 0.00 | 0.00 | 74 | 1014.7 |
| 20260503171004 | 58 | 340 | 1.0 | 7.0 | 0.00 | 0.00 | 0.00 | 74 | 1014.7 |
| 20260503170504 | 58 | 4 | 1.0 | 6.0 | 0.00 | 0.00 | 0.00 | 74 | 1014.6 |
| 20260503150530 | 55 | 7 | 1.0 | 4.0 | 0.00 | 0.00 | 0.00 | 82 | 1013.9 |
| 20260503131052 | 53 | 85 | 0.0 | 1.0 | 0.00 | 0.00 | 0.00 | 82 | 1012.9 |
| 20260503130552 | 53 | 78 | 0.0 | 1.0 | 0.00 | 0.00 | 0.00 | 82 | 1012.8 |
| 20260503120103 | 54 | 25 | 0.0 | 0.0 | 0.00 | 0.00 | 0.00 | 82 | 1012.3 |
| 20260503110546 | 54 | 26 | 0.0 | 0.0 | 0.00 | 0.00 | 0.00 | 82 | 1012.7 |
| 20260503081532 | 55 | 25 | 0.0 | 4.0 | 0.00 | 0.00 | 0.00 | 80 | 1013.1 |
| 20260503081032 | 55 | 29 | 1.0 | 4.0 | 0.00 | 0.00 | 0.00 | 80 | 1013.3 |
| 20260503080535 | 55 | 1 | 0.0 | 3.0 | 0.00 | 0.00 | 0.00 | 80 | 1013.3 |
| 20260503072529 | 55 | 25 | 0.0 | 2.0 | 0.00 | 0.00 | 0.00 | 81 | 1013.2 |
| 20260503072131 | 55 | 25 | 0.0 | 2.0 | 0.00 | 0.00 | 0.00 | 81 | 1013.3 |
| 20260503071528 | 55 | 25 | 0.0 | 2.0 | 0.00 | 0.00 | 0.00 | 81 | 1013.1 |
| 20260503071027 | 55 | 25 | 0.0 | 2.0 | 0.00 | 0.00 | 0.00 | 81 | 1013.1 |
| 20260503070526 | 55 | 25 | 0.0 | 1.0 | 0.00 | 0.00 | 0.00 | 81 | 1013.0 |
| 20260503055023 | 54 | 25 | 0.0 | 7.0 | 0.00 | 0.00 | 0.00 | 82 | 1012.7 |